Location: Gugi
(45.4667°N, 11.1000°E)
Time: 16:59:09
(UTC+00:00)

YAOGAN 6 - Pass Details

Date: 17 November 2019
Orbit: 466 x 505 km, 97.0° (Epoch: 05 December)

Event Time Altitude Azimuth Distance (km) Brightness Sun altitude
Rises 17:30:28 0° 170° (S) 2,500 6.2 -18.6°
Reaches altitude 10° 17:32:31 10° 173° (S) 1,625 5.2 -18.9°
Maximum altitude 17:36:00 74° 258° (WSW) 491 2.6 -19.5°
Drops below altitude 10° 17:39:30 10° 345° (NNW) 1,633 5.3 -20.2°
Sets 17:41:34 0° 347° (NNW) 2,515 6.3 -20.5°
